Regional Weather Roundup
Issued by NWS Memphis, TN

Home | Current Version | Previous Version | Text Only | Print | Product List | Glossary On
Versions: 1 2 3 4 5 6 7 8 9 10 11 12 13 14 15 16 17 18 19 20 21 22 23 24 25 26 27 28 29 30 31 32 33 34 35 36 37 38 39 40 41 42 43 44 45 46 47 48 49 50
000
ASUS44 KMEG 292110
RWRMEG
MEMPHIS CWA HOURLY WEATHER ROUNDUP
NATIONAL WEATHER SERVICE MEMPHIS TN
400 PM CDT WED MAR 29 2017

...WEST TENNESSEE...

CITY           SKY/WX    TMP DP  RH WIND       PRES   REMARKS
MEMPHIS INTL   CLOUDY    82  56  40 S16       29.81F
NWS MEMPHIS      N/A     82 N/A N/A MISG        N/A
JACKSON        SUNNY     83  56  39 S9        29.85F
SOMERVILLE     SUNNY     82  55  39 S10G20    29.82F
BOLIVAR        MOSUNNY   81  55  41 S14G24    29.85F
SAVANNAH       SUNNY     82  59  44 SW17G23   29.89F
DYERSBURG      MOSUNNY   81  56  42 S15G21    29.82F
PARIS          SUNNY     77  61  57 SE10      29.88F
HUNTINGDON     SUNNY     81  61  50 SE10G18   29.86F


...EASTERN ARKANSAS...

CITY           SKY/WX    TMP DP  RH WIND       PRES   REMARKS
JONESBORO      MOSUNNY   78  60  53 S14G22    29.80F
WEST MEMPHIS   CLOUDY    80  59  48 S22G28    29.79F
BATESVILLE     CLOUDY    79  61  53 S15G21    29.78F
NEWPORT        CLOUDY    78  64  61 S17G24    29.80R
WALNUT RIDGE   PTSUNNY   77  61  57 S16       29.80S
BLYTHEVILLE    PTSUNNY   80  60  50 S14       29.82F
NW BLYTHEVILLE PTSUNNY   81  61  50 S14G21    29.82
SEARCY         CLOUDY    79  64  60 S21G28    29.79F
STUTTGART      CLOUDY    81  57  44 SE21G30   29.79F
PINE BLUFF     CLOUDY    79  60  52 S18       29.78F
MONTICELLO     CLOUDY    81  59  47 S15G26    29.78F


...NORTH MISSISSIPPI...

CITY           SKY/WX    TMP DP  RH WIND       PRES   REMARKS
TUPELO         MOSUNNY   82  59  45 SE14      29.90S
OXFORD         SUNNY     81  54  39 S12G23    29.86F
BATESVILLE     CLOUDY    80  55  41 S14G21    29.84F
OLIVE BRANCH   PTSUNNY  N/A N/A N/A S16G23    29.82F
TUNICA         CLOUDY    79  55  44 S24G31    29.80F
CORINTH        MOSUNNY   82  57  42 S14G22    29.88F
GREENWOOD      PTSUNNY   81  58  45 S22       29.86F
COLUMBUS       MOSUNNY   82  62  49 S9G22     29.91F
STARKVILLE     MOSUNNY   81  57  44 S14       29.92F


...SOUTHEAST MISSOURI...

CITY           SKY/WX    TMP DP  RH WIND       PRES   REMARKS
KENNETT        PTSUNNY   81  61  50 S12       29.81F
MALDEN         MOSUNNY   79  63  57 S12       29.83F
WEST PLAINS    CLOUDY    70  60  70 SE13G25   29.80S
POPLAR BLUFF   CLOUDY    75  64  68 SE8       29.82F
CAPE GIRARDEAU CLOUDY    72  60  66 SE10      29.86S


...NORTHWEST ALABAMA...

CITY           SKY/WX    TMP DP  RH WIND       PRES   REMARKS
MUSCLE SHOALS  MOSUNNY   81  59  47 S10       29.92F


...MIDDLE TENNESSEE...

CITY           SKY/WX    TMP DP  RH WIND       PRES   REMARKS
NASHVILLE      MOSUNNY   81  56  42 S7        29.95F
CLARKSVILLE    SUNNY     76  56  49 E12       29.92F
COLUMBIA       MOSUNNY   81  63  54 SE10      29.91F


...WESTERN KENTUCKY...

CITY           SKY/WX    TMP DP  RH WIND       PRES   REMARKS
PADUCAH        MOSUNNY   75  58  55 SE14      29.85F
FORT CAMPBELL  SUNNY     77  56  49 E12       29.90F


...CENTRAL ARKANSAS...

CITY           SKY/WX    TMP DP  RH WIND       PRES   REMARKS
LITTLE ROCK    CLOUDY    79  62  56 S16G29    29.76F


SKY/WX REPORTED AS FAIR MEANS FEW OR NO CLOUDS BELOW
12 THOUSAND FEET.




USA.gov is the U.S. government's official web portal to all federal, state and local government web resources and services.